Vertical_Velocity
-10 -1 1 -0 1 1 3 0 -1 -1 1 2 2 1 1 -0 0 1 2 -0 -7 -8 17 -1 1 -4 -3 3 4 -0 14 11 16 3 -1 -3 -0 4 2 3 4 1 -3 4 -1 -5 6 2 0 -3 4 3 2 1
1 -3 -3 3 2 -1 3 0 4 2 0 1 1 1 -2 -1 -1 2 2 2 -1 -11 1 5 -1 3 -3 6 5 -0 -3 2 6 1 4 -1 -1 1 4 2 6 1 2 1 1 2 3 0 -0 -0 1 1 2 3
-4 -0 -3 -3 -2 3 3 0 2 2 3 -0 0 0 3 -1 1 1 4 2 -6 -5 8 4 -2 1 -0 1 5 -1 5 1 7 4 -1 -4 0 12 3 6 2 3 -0 2 -5 9 1 -2 -1 -1 -2 -4 -1 2
-3 -2 -2 -3 -1 -3 -2 0 0 0 1 2 1 2 2 -2 -1 -7 -0 -3 -3 -8 -10 3 7 -0 5 0 -1 3 0 3 -3 6 -2 0 7 5 -0 -1 -0 2 -3 0 6 11 -8 1 -3 -3 5 4 -0 3
-3 -1 1 1 -0 3 2 3 3 4 3 3 4 4 4 0 2 -1 1 -0 1 -1 -6 3 4 2 3 5 -1 -3 -1 1 0 -0 -6 -3 6 -3 8 4 4 12 0 -2 8 -4 1 3 2 3 2 0 0 1
-1 -0 1 0 -2 -3 1 2 3 0 3 3 6 4 2 -3 4 -6 6 3 2 -2 -8 -6 7 10 2 -4 -0 0 1 -0 3 1 5 -5 -2 3 -3 -0 1 1 1 -3 4 1 1 3 1 3 -0 1 1 1
4 -1 -5 -0 2 2 1 1 3 4 4 5 3 5 2 1 1 -2 -6 -1 -2 -3 -8 -9 0 6 4 0 -1 1 1 2 1 -2 5 2 5 5 7 -7 12 6 1 -10 -1 4 1 -0 2 2 4 1 -0 -1
-4 -3 -2 -2 -1 1 4 2 1 4 2 1 0 1 1 -1 0 0 -3 1 2 -1 -3 -7 0 3 -2 3 3 0 -0 -2 2 -3 1 5 0 2 -13 -1 7 3 -5 -4 -3 -2 1 0 0 -1 1 1 -1 0
-9 -6 -3 -2 -1 -2 -2 -3 -3 -1 4 -1 -1 -2 5 -1 1 2 0 -0 2 -2 -6 1 -2 0 2 0 -0 -1 1 -0 -1 1 3 4 -0 -5 3 -1 -0 4 -3 -2 -3 -1 -1 0 0 2 2 1 0 1
-5 -8 -7 -3 1 1 1 -2 -3 -3 6 -3 -3 -5 -3 3 1 -0 3 -2 -0 -1 2 3 -1 -2 -2 -2 0 0 2 -1 2 6 4 -1 3 2 -0 1 2 -0 -0 2 -3 -3 0 -2 -2 2 1 1 1 1
-6 -6 -6 -1 0 1 1 1 -2 -6 2 -1 -0 -1 0 -2 1 -3 0 1 1 -1 1 0 -1 -2 -0 -0 1 0 3 2 3 4 -0 0 4 4 -3 -2 1 2 0 -1 3 2 1 1 -1 -0 -0 -2 -0 1
-6 -4 -3 -1 1 3 2 -1 -6 -3 -4 -5 -1 -2 1 -0 2 5 2 -0 -0 1 -1 -2 -1 -0 -0 -1 -1 0 0 1 3 3 2 0 2 2 5 4 2 2 2 -1 1 0 -2 -1 -0 1 -0 -1 1 2
-6 -3 -2 -2 -2 1 3 -3 -4 -2 -2 -1 -0 1 -2 -1 1 -1 2 3 1 -2 -1 -0 0 -1 -0 -0 -1 -1 -1 1 0 -0 -0 3 -0 -2 -2 -2 -2 -0 1 2 2 3 0 1 1 1 2 2 -0 -1
-1 -6 -3 -1 -1 1 1 -1 -2 -2 -2 1 1 2 1 2 3 1 2 2 0 -2 -2 -1 -0 1 0 -0 0 -1 1 1 -1 2 1 -1 0 1 0 -0 1 -0 0 2 3 3 2 2 3 6 4 0 -1 -0
-4 -4 -2 -2 -3 -2 -4 4 -2 -5 -1 1 -3 0 -0 0 1 1 1 0 -2 -3 -1 0 0 0 1 -2 1 0 -1 -1 1 2 2 0 -1 -1 1 2 1 -0 0 1 2 3 1 2 2 2 2 1 1 -1
-2 1 -2 0 -4 -4 -4 -0 -1 -2 -0 3 5 -2 1 0 1 -2 0 2 1 -2 0 1 1 -0 2 0 0 0 0 2 2 0 1 2 1 1 2 2 2 1 0 -0 -2 -3 -1 1 1 1 0 1 0 -1
4 -9 -0 1 6 1 -4 -2 -3 1 -0 1 2 4 5 6 -0 -0 0 0 0 -1 0 0 -1 0 0 -1 -1 1 0 -0 1 -0 1 2 2 1 -0 -0 -1 -1 -0 1 2 2 2 -0 -2 -2 -1 2 1 0
-4 -0 -1 -1 -1 4 2 -0 -4 -2 0 6 1 3 3 3 4 5 -2 -1 -3 -1 0 1 1 2 0 -0 -1 -0 0 -0 -0 -0 1 1 0 1 1 0 0 -1 -1 -1 -1 1 1 2 2 2 0 0 2 1
-1 2 1 -0 -2 -0 -4 4 5 -3 5 3 2 1 1 1 6 5 0 -0 0 1 0 2 -4 3 2 2 1 -0 -1 -2 -1 -0 0 -0 -0 -0 -0 -0 -0 -0 -1 -1 -1 -1 -1 -1 -2 -2 -1 1 2 0
0 -1 -4 2 -1 -3 -5 -1 2 1 3 3 3 2 1 3 -2 -1 4 11 8 5 0 -1 1 -0 1 1 1 1 1 1 0 -1 -0 -1 -0 -0 -0 -0 -1 -0 -0 -0 -1 0 -0 -2 -1 -1 0 0 2 3
5 1 -2 -0 5 -3 -8 -2 -1 -1 0 -0 4 2 1 4 6 5 4 2 1 2 3 3 2 2 2 2 2 2 2 2 1 2 0 -1 0 1 1 0 -0 -0 -1 -1 -0 0 0 1 -0 -1 1 1 1 2
4 -3 1 -1 -3 -1 1 -2 -2 -1 -1 -1 -0 -0 0 1 1 1 1 2 1 1 2 3 3 2 2 2 2 2 1 1 1 1 1 0 -1 -0 0 0 0 -0 -0 0 -0 0 -0 1 0 -0 -1 0 2 2
1 -2 -1 -1 -4 -0 -2 -3 -2 -3 -3 -1 -1 -1 -1 -0 1 2 0 2 1 2 2 2 2 2 2 3 2 1 0 0 -0 -0 -0 0 0 0 -0 -0 0 1 1 -0 -0 0 0 -1 0 -1 0 0 1 0
-1 -4 -2 -4 -3 -3 -2 -2 -3 -2 -2 -1 -1 -0 -0 -0 -1 0 -1 -0 1 2 2 2 2 1 2 2 2 1 1 0 -0 -1 -1 -1 -1 -1 -1 -1 -1 0 1 1 0 -0 0 1 1 1 1 0 2 1
-2 -2 -2 -2 -3 -2 -2 -1 -2 -2 -2 -2 -2 -2 -1 1 1 2 2 2 1 0 0 0 0 -0 0 -0 1 1 0 -0 -1 -1 -1 -0 -0 0 0 0 -0 0 -0 -1 -1 -0 1 1 1 1 1 1 0 3
-3 -2 -4 -1 -0 -3 -3 -2 -1 -0 -1 -1 -2 -1 0 1 2 -1 1 2 1 1 1 0 -0 -1 -0 1 1 1 -0 -0 -0 0 -1 -1 -2 -2 -2 -1 0 1 -1 -1 -0 -0 -1 0 -1 -1 -2 -1 0 2
-0 -1 -1 -2 -3 -3 -2 -1 -1 -2 -1 -0 1 0 1 -0 1 1 1 1 -1 0 0 -0 -0 1 1 1 1 0 1 -0 -2 -2 -1 -0 -1 -1 -2 -2 -1 -0 1 1 1 1 0 -2 -3 -2 -2 -3 -2 -1
-1 -1 -3 -2 -2 -2 -2 -1 -1 -2 -1 -0 1 1 0 -0 0 0 0 0 -0 -0 0 0 0 0 0 1 2 -0 -4 -1 -0 -0 0 1 -0 -1 -1 -1 -0 -1 0 0 -0 -2 -4 -3 -3 -3 -4 3 3 -4
-2 -2 -2 -1 -1 -2 -2 -2 -2 -1 -1 -1 -0 -0 -1 1 0 0 -0 -0 -0 -0 -0 0 -1 1 1 -1 0 6 1 0 -2 -3 -2 -2 -2 2 2 2 1 1 3 3 -6 -7 -2 1 2 -1 0 1 -1 -1
-1 -2 -1 -1 -1 -2 -1 -1 -1 -1 -1 -1 -0 -0 -0 -0 -0 0 0 -0 -0 -0 0 1 0 2 1 -0 -5 -9 1 -1 1 2 -0 -2 -2 -3 -3 -0 2 2 -2 -3 1 -0 -5 -0 0 -0 -2 -2 -2 -1
-1 -2 -2 -1 -2 -2 -1 -1 -0 -1 -1 -0 -0 -0 -0 -0 -0 0 -0 0 0 -0 -1 -2 -2 4 -1 -0 2 -4 -7 -2 -2 0 1 -0 -2 -1 -1 -0 1 -1 -3 -4 -3 -2 -1 -2 -3 -2 -2 -2 -4 -4
-1 -2 -2 -2 -2 -1 -1 -1 -1 -1 -1 -0 -0 -0 -1 -0 -1 1 1 0 -0 -1 0 1 1 2 0 -0 1 2 1 -2 -3 -2 -3 -1 -2 -3 -3 -0 -1 -1 -1 -1 -1 -1 -3 -2 -1 -2 -1 -2 -3 -4
-2 -2 -1 -1 -1 -1 -2 -1 -0 1 -1 -1 -1 1 1 1 0 1 1 0 -0 1 1 -2 -3 2 1 -0 -1 -1 -1 -2 -2 -1 -1 -1 -1 -2 -2 -1 2 2 -1 0 1 1 1 0 0 -0 -1 -1 -0 -1
Height
5648 5643 5638 5634 5629 5625 5621 5617 5612 5607 5602 5597 5593 5587 5580 5574 5566 5558 5549 5541 5533 5530 5528 5513 5504 5498 5492 5490 5486 5485 5483 5483 5483 5481 5482 5483 5485 5486 5488 5491 5494 5497 5498 5500 5501 5503 5505 5505 5507 5510 5513 5514 5518 5522
5638 5633 5629 5624 5620 5616 5611 5607 5602 5596 5591 5585 5579 5573 5566 5559 5552 5545 5536 5527 5518 5511 5508 5499 5493 5487 5481 5477 5473 5473 5472 5472 5471 5471 5473 5473 5474 5475 5477 5480 5482 5486 5487 5490 5493 5494 5494 5495 5497 5499 5501 5503 5505 5509
5631 5627 5622 5618 5614 5608 5603 5598 5591 5585 5579 5573 5566 5559 5551 5544 5537 5530 5522 5512 5503 5497 5492 5484 5479 5474 5468 5464 5461 5458 5458 5458 5459 5460 5462 5463 5464 5467 5468 5471 5472 5474 5476 5479 5481 5483 5483 5483 5486 5488 5490 5493 5496 5498
5624 5619 5615 5609 5604 5598 5592 5586 5579 5571 5564 5557 5551 5543 5536 5529 5521 5514 5507 5497 5487 5479 5476 5474 5466 5461 5455 5450 5447 5445 5445 5445 5446 5449 5450 5453 5456 5458 5460 5460 5462 5464 5465 5467 5472 5471 5471 5474 5475 5478 5481 5483 5485 5488
5616 5610 5604 5597 5591 5584 5577 5570 5563 5555 5549 5543 5535 5528 5520 5513 5506 5498 5491 5482 5473 5467 5462 5459 5453 5447 5442 5438 5434 5433 5433 5434 5437 5438 5440 5444 5447 5449 5450 5451 5453 5454 5454 5457 5460 5461 5465 5465 5465 5468 5471 5473 5475 5478
5605 5598 5592 5585 5578 5571 5563 5556 5549 5541 5534 5527 5520 5512 5505 5498 5491 5484 5479 5469 5460 5453 5449 5446 5442 5436 5431 5426 5424 5423 5423 5425 5427 5429 5431 5434 5438 5441 5442 5445 5446 5445 5445 5446 5449 5453 5454 5455 5457 5458 5460 5462 5465 5467
5594 5587 5580 5572 5563 5555 5548 5540 5533 5525 5518 5511 5505 5498 5490 5483 5476 5469 5463 5455 5447 5441 5437 5434 5430 5425 5421 5418 5416 5415 5414 5414 5417 5418 5421 5425 5429 5431 5433 5437 5437 5437 5437 5437 5440 5444 5446 5447 5448 5449 5450 5452 5454 5457
5583 5575 5566 5557 5548 5539 5532 5524 5517 5510 5503 5496 5490 5484 5478 5470 5462 5455 5448 5443 5437 5431 5426 5423 5420 5415 5412 5410 5409 5407 5406 5405 5405 5406 5411 5415 5419 5422 5425 5428 5429 5428 5430 5431 5432 5434 5436 5437 5439 5440 5441 5442 5443 5446
5569 5560 5550 5542 5533 5525 5517 5510 5503 5497 5491 5482 5477 5470 5464 5457 5449 5443 5435 5430 5425 5422 5417 5414 5410 5406 5403 5402 5401 5401 5400 5399 5399 5400 5403 5406 5409 5413 5417 5417 5418 5418 5420 5422 5422 5424 5426 5427 5428 5429 5430 5432 5433 5435
5554 5545 5536 5527 5519 5511 5503 5496 5489 5483 5475 5468 5463 5456 5450 5444 5436 5430 5424 5418 5414 5411 5408 5406 5401 5398 5396 5393 5393 5394 5393 5393 5393 5396 5396 5398 5401 5404 5406 5406 5407 5408 5410 5412 5413 5415 5417 5418 5419 5420 5420 5421 5422 5423
5539 5531 5523 5515 5507 5499 5491 5483 5475 5468 5464 5455 5448 5443 5436 5429 5423 5416 5412 5408 5403 5401 5399 5396 5394 5391 5389 5387 5386 5384 5384 5384 5384 5387 5388 5390 5393 5393 5394 5396 5397 5399 5401 5402 5404 5406 5407 5409 5410 5412 5412 5413 5414 5414
5525 5517 5509 5502 5495 5487 5479 5472 5463 5456 5449 5443 5435 5429 5423 5416 5411 5407 5401 5397 5394 5393 5392 5389 5387 5385 5383 5380 5379 5378 5377 5377 5377 5378 5379 5379 5383 5383 5384 5385 5387 5388 5389 5391 5393 5395 5397 5398 5399 5401 5402 5403 5404 5405
5511 5504 5496 5489 5482 5475 5467 5459 5451 5443 5435 5428 5422 5415 5411 5406 5401 5396 5393 5390 5387 5387 5385 5383 5382 5380 5377 5375 5374 5373 5372 5372 5371 5372 5372 5373 5373 5374 5374 5375 5376 5377 5378 5380 5381 5383 5384 5386 5387 5388 5390 5391 5393 5394
5498 5490 5482 5475 5468 5462 5454 5445 5438 5430 5422 5416 5410 5405 5401 5396 5392 5389 5386 5384 5383 5381 5380 5378 5376 5374 5372 5370 5369 5368 5367 5366 5366 5366 5366 5365 5365 5365 5366 5367 5367 5367 5367 5368 5369 5371 5373 5374 5375 5376 5377 5378 5380 5381
5485 5477 5469 5461 5454 5449 5441 5433 5424 5417 5411 5405 5399 5396 5392 5388 5385 5382 5380 5378 5377 5376 5374 5372 5370 5370 5368 5366 5365 5363 5362 5361 5361 5360 5360 5359 5358 5359 5359 5359 5359 5359 5358 5359 5359 5360 5362 5363 5364 5365 5366 5366 5367 5368
5474 5466 5457 5449 5441 5435 5427 5420 5413 5405 5400 5396 5391 5387 5384 5381 5378 5376 5374 5373 5372 5370 5369 5367 5366 5364 5363 5362 5361 5358 5358 5356 5355 5354 5353 5353 5352 5352 5351 5351 5351 5350 5350 5350 5351 5351 5352 5352 5353 5354 5355 5355 5356 5357
5461 5453 5447 5438 5429 5420 5413 5406 5400 5395 5389 5386 5383 5379 5377 5375 5372 5370 5368 5366 5366 5364 5363 5362 5361 5360 5358 5356 5355 5353 5351 5350 5348 5346 5345 5344 5344 5343 5343 5342 5342 5342 5341 5341 5341 5341 5341 5342 5343 5344 5344 5345 5345 5345
5448 5440 5432 5423 5416 5409 5401 5393 5387 5382 5379 5377 5373 5371 5369 5367 5366 5364 5362 5360 5359 5358 5357 5356 5355 5354 5352 5350 5348 5346 5343 5342 5340 5339 5337 5336 5336 5335 5334 5333 5332 5331 5331 5331 5331 5331 5331 5331 5331 5331 5333 5334 5334 5335
5435 5427 5417 5408 5400 5393 5386 5383 5377 5371 5368 5365 5363 5362 5360 5360 5360 5358 5357 5355 5354 5352 5351 5350 5348 5348 5346 5343 5341 5338 5336 5334 5332 5331 5329 5328 5327 5326 5324 5323 5322 5322 5321 5320 5320 5320 5320 5321 5321 5321 5321 5322 5323 5324
5420 5411 5402 5394 5384 5378 5372 5367 5363 5358 5357 5356 5354 5352 5352 5352 5351 5350 5350 5349 5348 5346 5344 5342 5341 5339 5337 5335 5333 5331 5329 5327 5325 5323 5321 5319 5318 5316 5315 5314 5313 5312 5311 5309 5309 5308 5308 5308 5308 5309 5310 5310 5311 5311
5407 5398 5388 5380 5372 5365 5359 5354 5349 5346 5344 5344 5344 5343 5342 5342 5343 5342 5341 5340 5339 5337 5335 5334 5332 5330 5328 5326 5324 5322 5321 5319 5317 5315 5313 5311 5309 5307 5306 5304 5303 5301 5300 5298 5297 5296 5296 5296 5295 5295 5296 5297 5298 5299
5395 5385 5376 5368 5363 5357 5352 5347 5343 5340 5337 5335 5334 5333 5332 5332 5332 5331 5330 5329 5328 5327 5325 5323 5321 5319 5317 5316 5314 5312 5311 5309 5307 5305 5303 5301 5299 5297 5295 5293 5291 5290 5288 5286 5285 5284 5283 5283 5283 5283 5282 5282 5283 5283
5382 5374 5368 5362 5357 5352 5348 5342 5339 5334 5331 5328 5326 5325 5324 5324 5323 5322 5321 5320 5318 5317 5315 5313 5310 5309 5307 5305 5303 5301 5299 5297 5295 5293 5290 5288 5286 5283 5281 5279 5277 5276 5274 5273 5271 5270 5269 5268 5267 5267 5267 5267 5267 5267
5371 5366 5361 5356 5351 5347 5342 5338 5333 5330 5326 5323 5321 5319 5318 5317 5315 5314 5312 5311 5309 5307 5305 5302 5300 5298 5296 5294 5291 5289 5286 5283 5280 5278 5275 5273 5270 5268 5266 5264 5262 5260 5259 5257 5255 5254 5253 5252 5251 5251 5250 5250 5250 5250
5366 5361 5357 5351 5346 5342 5338 5333 5329 5326 5322 5319 5316 5313 5311 5309 5307 5305 5304 5301 5299 5296 5293 5291 5288 5285 5282 5280 5277 5274 5271 5268 5265 5262 5259 5257 5254 5252 5249 5247 5245 5243 5242 5240 5239 5237 5235 5234 5233 5232 5232 5231 5231 5231
5358 5354 5350 5345 5342 5338 5333 5329 5326 5322 5318 5314 5310 5307 5303 5301 5298 5295 5292 5289 5286 5283 5280 5277 5274 5271 5268 5266 5262 5259 5256 5253 5249 5246 5243 5241 5238 5235 5233 5230 5228 5226 5223 5221 5220 5217 5216 5215 5213 5212 5211 5211 5210 5210
5352 5348 5344 5341 5336 5333 5328 5324 5320 5316 5312 5308 5304 5300 5296 5292 5289 5286 5282 5279 5275 5272 5268 5265 5262 5259 5255 5252 5248 5245 5242 5238 5235 5232 5229 5226 5222 5219 5216 5214 5211 5209 5206 5203 5201 5198 5195 5192 5190 5189 5188 5187 5186 5185
5346 5342 5339 5335 5330 5326 5321 5317 5313 5309 5305 5300 5296 5292 5288 5284 5281 5277 5273 5269 5266 5262 5258 5255 5251 5247 5243 5240 5236 5232 5228 5224 5221 5217 5214 5210 5207 5203 5200 5196 5193 5189 5186 5182 5179 5175 5173 5171 5168 5166 5165 5164 5161 5158
5340 5336 5332 5328 5323 5318 5314 5310 5306 5301 5296 5291 5287 5283 5279 5275 5271 5267 5263 5260 5256 5252 5248 5244 5240 5236 5232 5228 5225 5221 5216 5212 5207 5203 5199 5195 5191 5188 5184 5179 5175 5170 5166 5162 5157 5154 5152 5149 5145 5142 5140 5138 5135 5132
5333 5329 5325 5320 5316 5311 5307 5302 5297 5292 5287 5282 5278 5274 5270 5265 5262 5258 5254 5249 5245 5241 5237 5233 5229 5225 5221 5216 5211 5208 5204 5198 5194 5189 5184 5179 5175 5170 5166 5161 5157 5152 5146 5142 5138 5133 5128 5125 5121 5117 5113 5110 5107 5105
5325 5321 5317 5312 5308 5303 5298 5293 5288 5283 5278 5273 5269 5264 5260 5256 5252 5247 5243 5239 5235 5230 5226 5222 5218 5214 5209 5205 5199 5193 5189 5185 5179 5174 5169 5163 5158 5154 5150 5145 5140 5134 5129 5123 5118 5114 5109 5103 5098 5094 5090 5086 5081 5077
5317 5313 5308 5303 5299 5294 5289 5283 5278 5274 5269 5264 5260 5255 5251 5247 5242 5238 5234 5229 5225 5220 5216 5212 5207 5203 5198 5192 5187 5181 5175 5170 5164 5160 5154 5149 5143 5139 5134 5131 5126 5120 5114 5108 5103 5097 5091 5086 5080 5075 5070 5064 5058 5052
5308 5304 5299 5294 5289 5284 5279 5274 5269 5264 5260 5255 5250 5246 5241 5237 5233 5229 5225 5220 5216 5211 5206 5201 5196 5192 5186 5180 5174 5169 5163 5157 5152 5148 5143 5138 5133 5128 5122 5118 5113 5106 5100 5095 5090 5084 5078 5072 5065 5059 5052 5045 5038 5031